Location: Palomar Mountain Lodge
(33.3110°N, 116.8495°W)
Time: 14:59:24
(UTC-07:00)

OAO 1 - Pass Details

Date: 19 May 2017
Orbit: 773 x 784 km, 35.0° (Epoch: 24 May)

Event Time Altitude Azimuth Distance (km) Brightness Sun altitude
Rises 21:08:41 0° 282° (WNW) 3,258 8.9 -16.0°
Reaches altitude 10° 21:11:10 10° 282° (WNW) 2,328 8.0 -16.4°
Maximum altitude 21:16:41 90° 9° (N) 781 4.5 -17.3°
Enters shadow 21:19:43 28° 103° (ESE) 1,433 5.4 -17.8°
